�������l�o���
Date,Time,MP-1(��Sv/h),MP-2(��Sv/h),MP-3(��Sv/h),MP-4(��Sv/h),MP-5(��Sv/h),MP-6(��Sv/h),MP-7(��Sv/h),����,����(m/s),���J
2021/01/29,00:00,0.181,0.162,0.256,0.241,0.240,0.143,0.087,�k��,7.6,�L
2021/01/29,00:10,0.180,0.161,0.256,0.241,0.240,0.143,0.087,�k��,6.8,�L
2021/01/29,00:20,0.180,0.162,0.255,0.241,0.238,0.142,0.087,�k��,7.3,�L
2021/01/29,00:30,0.179,0.162,0.256,0.242,0.239,0.142,0.087,�k��,7.6,�L
2021/01/29,00:40,0.182,0.161,0.256,0.242,0.239,0.143,0.089,�k��,7.0,�L
2021/01/29,00:50,0.181,0.162,0.255,0.243,0.239,0.143,0.087,�k��,6.7,�L
2021/01/29,01:00,0.180,0.161,0.254,0.242,0.239,0.143,0.089,�k��,7.0,��
2021/01/29,01:10,0.180,0.161,0.254,0.241,0.239,0.142,0.088,�k��,7.0,��
2021/01/29,01:20,0.180,0.161,0.255,0.240,0.239,0.142,0.085,�k��,6.3,�L
2021/01/29,01:30,0.180,0.161,0.254,0.239,0.239,0.141,0.087,�k��,6.1,�L
2021/01/29,01:40,0.179,0.160,0.253,0.239,0.238,0.141,0.086,�k��,5.3,��
2021/01/29,01:50,0.179,0.160,0.253,0.240,0.238,0.141,0.086,�k��,4.0,��
2021/01/29,02:00,0.178,0.160,0.254,0.239,0.237,0.141,0.086,�k�k��,2.9,�L
2021/01/29,02:10,0.179,0.159,0.253,0.238,0.237,0.141,0.085,�k�k��,3.1,�L
2021/01/29,02:20,0.178,0.159,0.253,0.239,0.237,0.140,0.085,�k�k��,3.6,��
2021/01/29,02:30,0.178,0.160,0.252,0.240,0.237,0.141,0.085,�k�k��,2.4,��
2021/01/29,02:40,0.177,0.159,0.253,0.239,0.238,0.141,0.084,�k,2.6,��
2021/01/29,02:50,0.177,0.159,0.253,0.240,0.237,0.140,0.085,�k,2.2,��
2021/01/29,03:00,0.178,0.159,0.252,0.238,0.238,0.140,0.085,�k,2.1,��
2021/01/29,03:10,0.177,0.160,0.252,0.239,0.237,0.139,0.085,�k,1.6,��
2021/01/29,03:20,0.177,0.160,0.252,0.240,0.237,0.141,0.085,�k��,0.9,��
2021/01/29,03:30,0.178,0.159,0.253,0.238,0.238,0.139,0.085,�k��,0.9,��
2021/01/29,03:40,0.176,0.160,0.253,0.238,0.237,0.140,0.085,��,1.4,��
2021/01/29,03:50,0.178,0.159,0.252,0.239,0.237,0.139,0.085,��,0.8,��
2021/01/29,04:00,0.177,0.160,0.251,0.239,0.238,0.140,0.085,��,0.9,��
2021/01/29,04:10,0.177,0.159,0.251,0.240,0.237,0.141,0.085,�k�k��,0.6,��
2021/01/29,04:20,0.177,0.159,0.253,0.239,0.237,0.141,0.085,�k��,0.8,��
2021/01/29,04:30,0.177,0.160,0.252,0.239,0.237,0.140,0.084,�k��,3.1,��
2021/01/29,04:40,0.177,0.160,0.252,0.239,0.238,0.141,0.085,�k��,4.3,�L
2021/01/29,04:50,0.179,0.159,0.253,0.240,0.239,0.141,0.086,���k��,2.8,�L
2021/01/29,05:00,0.177,0.160,0.253,0.240,0.236,0.141,0.086,���k��,4.4,�L
2021/01/29,05:10,0.177,0.160,0.253,0.239,0.238,0.141,0.085,��,4.3,��
2021/01/29,05:20,0.177,0.159,0.253,0.240,0.237,0.142,0.085,���k��,3.0,��
2021/01/29,05:30,0.177,0.158,0.252,0.239,0.238,0.141,0.086,�k��,3.3,��
2021/01/29,05:40,0.177,0.160,0.251,0.241,0.237,0.140,0.085,���k��,6.6,��
2021/01/29,05:50,0.177,0.160,0.253,0.240,0.237,0.141,0.084,���k��,11.5,��
2021/01/29,06:00,0.177,0.160,0.253,0.239,0.237,0.141,0.085,��,14.6,��
2021/01/29,06:10,0.177,0.159,0.253,0.241,0.237,0.140,0.086,��,15.6,��
2021/01/29,06:20,0.177,0.159,0.252,0.239,0.237,0.140,0.085,��,17.3,��
2021/01/29,06:30,0.177,0.159,0.252,0.239,0.237,0.139,0.085,���k��,13.4,��
2021/01/29,06:40,0.178,0.160,0.252,0.240,0.238,0.141,0.085,���k��,10.1,��
2021/01/29,06:50,0.178,0.159,0.253,0.239,0.237,0.140,0.085,���k��,12.0,��
2021/01/29,07:00,0.178,0.159,0.253,0.239,0.237,0.141,0.085,���k��,12.0,��
2021/01/29,07:10,0.177,0.160,0.252,0.239,0.237,0.140,0.084,���k��,11.1,��
2021/01/29,07:20,0.178,0.159,0.254,0.240,0.238,0.141,0.085,���k��,14.6,��
2021/01/29,07:30,0.178,0.160,0.253,0.239,0.239,0.140,0.086,��,13.7,��
2021/01/29,07:40,0.178,0.159,0.254,0.238,0.237,0.140,0.084,��,19.2,��
2021/01/29,07:50,0.178,0.159,0.253,0.240,0.237,0.141,0.085,-,CALM,��
2021/01/29,08:00,0.177,0.159,0.254,0.238,0.237,0.140,0.085,��,19.4,��
2021/01/29,08:10,0.178,0.158,0.255,0.240,0.239,0.141,0.084,���k��,22.3,��
2021/01/29,08:20,0.179,0.159,0.253,0.239,0.237,0.140,0.084,���k��,18.4,��
2021/01/29,08:30,0.178,0.160,0.256,0.240,0.238,0.141,0.085,���k��,22.2,��
2021/01/29,08:40,0.179,0.159,0.255,0.240,0.239,0.141,0.085,���k��,16.2,��
2021/01/29,08:50,0.178,0.159,0.255,0.239,0.237,0.141,0.085,���k��,17.8,��
2021/01/29,09:00,0.178,0.159,0.254,0.239,0.238,0.141,0.085,��,17.1,��
2021/01/29,09:10,0.177,0.160,0.255,0.239,0.238,0.140,0.084,-,CALM,��
2021/01/29,09:20,0.178,0.159,0.254,0.241,0.238,0.141,0.085,���k��,18.9,��
2021/01/29,09:30,0.178,0.159,0.253,0.240,0.238,0.142,0.085,���k��,12.9,��
2021/01/29,09:40,0.179,0.161,0.254,0.241,0.239,0.140,0.084,���k��,10.9,��
2021/01/29,09:50,0.179,0.161,0.257,0.242,0.239,0.142,0.085,�k��,8.4,��
2021/01/29,10:00,0.179,0.160,0.256,0.241,0.239,0.141,0.085,�k,2.8,��
2021/01/29,10:10,0.179,0.159,0.256,0.241,0.238,0.140,0.085,�k�k��,3.6,��
2021/01/29,10:20,0.180,0.160,0.255,0.241,0.238,0.141,0.084,�k��,6.0,��
2021/01/29,10:30,0.179,0.161,0.256,0.241,0.236,0.140,0.084,���k��,7.7,��
2021/01/29,10:40,0.178,0.159,0.256,0.240,0.233,0.141,0.084,���k��,4.8,��
2021/01/29,10:50,0.180,0.159,0.254,0.240,0.234,0.141,0.084,���k��,5.7,��
2021/01/29,11:00,0.178,0.160,0.254,0.240,0.238,0.141,0.085,��,10.3,��
2021/01/29,11:10,0.179,0.159,0.255,0.240,0.238,0.140,0.085,���k��,10.4,��
2021/01/29,11:20,0.178,0.159,0.254,0.240,0.236,0.141,0.085,��,9.3,��
2021/01/29,11:30,0.177,0.159,0.252,0.240,0.238,0.141,0.085,��,10.3,��
2021/01/29,11:40,0.178,0.158,0.253,0.239,0.236,0.142,0.086,���k��,10.3,��
2021/01/29,11:50,0.177,0.160,0.254,0.240,0.236,0.142,0.085,���k��,7.9,��
2021/01/29,12:00,0.177,0.160,0.255,0.241,0.238,0.141,0.086,���k��,6.5,��
2021/01/29,12:10,0.178,0.159,0.255,0.240,0.235,0.141,0.085,���k��,7.7,��
2021/01/29,12:20,0.177,0.160,0.256,0.240,0.239,0.142,0.085,���k��,6.6,��
2021/01/29,12:30,0.178,0.160,0.255,0.241,0.237,0.142,0.085,��,10.4,��
2021/01/29,12:40,0.180,0.160,0.254,0.241,0.237,0.142,0.086,���k��,11.5,��
2021/01/29,12:50,0.178,0.160,0.254,0.240,0.238,0.141,0.085,���k��,10.6,��
2021/01/29,13:00,0.179,0.160,0.254,0.241,0.238,0.141,0.085,���k��,9.2,��
2021/01/29,13:10,0.179,0.159,0.255,0.241,0.238,0.142,0.085,��,7.6,��
2021/01/29,13:20,0.178,0.160,0.254,0.241,0.238,0.142,0.085,�k��,5.2,��
2021/01/29,13:30,0.178,0.159,0.255,0.240,0.238,0.142,0.086,��,7.4,��
2021/01/29,13:40,0.179,0.159,0.256,0.241,0.238,0.141,0.085,��,8.1,��
2021/01/29,13:50,0.178,0.159,0.255,0.240,0.238,0.142,0.085,��,12.2,��
2021/01/29,14:00,0.178,0.161,0.256,0.240,0.237,0.142,0.085,���k��,7.6,��
2021/01/29,14:10,0.179,0.160,0.255,0.239,0.238,0.141,0.085,���k��,9.5,��
2021/01/29,14:20,0.179,0.159,0.254,0.240,0.237,0.141,0.085,��,10.9,��
2021/01/29,14:30,0.179,0.160,0.255,0.241,0.236,0.141,0.085,��,11.5,��
2021/01/29,14:40,0.178,0.160,0.256,0.242,0.240,0.142,0.085,��,11.4,��
2021/01/29,14:50,0.179,0.159,0.255,0.242,0.238,0.141,0.086,��,9.3,��
2021/01/29,15:00,0.179,0.159,0.257,0.241,0.238,0.141,0.086,���k��,8.8,��
2021/01/29,15:10,0.179,0.161,0.255,0.242,0.240,0.142,0.086,��,7.8,��
2021/01/29,15:20,0.179,0.161,0.254,0.243,0.239,0.141,0.086,��,9.8,��
2021/01/29,15:30,0.179,0.160,0.256,0.242,0.239,0.141,0.085,��,10.0,��
2021/01/29,15:40,0.178,0.160,0.255,0.241,0.240,0.141,0.085,��,8.5,��
2021/01/29,15:50,0.179,0.160,0.256,0.242,0.239,0.142,0.085,��,9.5,��
2021/01/29,16:00,0.179,0.160,0.256,0.242,0.238,0.141,0.085,���k��,9.6,��
2021/01/29,16:10,0.179,0.160,0.255,0.242,0.238,0.141,0.086,��,10.7,��
2021/01/29,16:20,0.178,0.160,0.256,0.241,0.237,0.142,0.086,��,9.5,��
2021/01/29,16:30,0.179,0.161,0.256,0.240,0.238,0.141,0.085,���k��,6.1,��
2021/01/29,16:40,0.179,0.160,0.256,0.241,0.239,0.142,0.086,���k��,6.2,��
2021/01/29,16:50,0.179,0.160,0.256,0.242,0.238,0.141,0.085,���k��,7.9,��
2021/01/29,17:00,0.178,0.160,0.256,0.241,0.238,0.142,0.085,���k��,7.5,��
2021/01/29,17:10,0.179,0.160,0.256,0.242,0.238,0.142,0.085,���k��,9.6,��
2021/01/29,17:20,0.180,0.161,0.255,0.241,0.238,0.140,0.085,���k��,9.0,��
2021/01/29,17:30,0.178,0.160,0.256,0.241,0.237,0.141,0.085,���k��,7.0,��
2021/01/29,17:40,0.179,0.160,0.256,0.242,0.237,0.140,0.085,���k��,7.5,��
2021/01/29,17:50,0.179,0.161,0.256,0.240,0.239,0.141,0.085,��,8.1,��
2021/01/29,18:00,0.179,0.160,0.256,0.241,0.238,0.141,0.085,��,8.1,��
2021/01/29,18:10,0.179,0.160,0.256,0.241,0.237,0.141,0.086,��,8.7,��
2021/01/29,18:20,0.179,0.161,0.256,0.241,0.238,0.142,0.086,��,9.5,��
2021/01/29,18:30,0.179,0.160,0.256,0.241,0.238,0.141,0.085,���k��,7.9,��
2021/01/29,18:40,0.179,0.161,0.255,0.240,0.239,0.140,0.086,��,8.1,��
2021/01/29,18:50,0.179,0.159,0.254,0.242,0.237,0.141,0.085,��,7.0,��
2021/01/29,19:00,0.178,0.161,0.257,0.242,0.238,0.141,0.085,��,7.3,��
2021/01/29,19:10,0.179,0.160,0.255,0.243,0.237,0.141,0.085,���k��,7.4,��
2021/01/29,19:20,0.178,0.160,0.255,0.241,0.237,0.141,0.086,��,7.4,��
2021/01/29,19:30,0.179,0.161,0.255,0.241,0.238,0.141,0.085,���k��,7.3,��
2021/01/29,19:40,0.178,0.160,0.255,0.241,0.237,0.141,0.086,��,8.1,��
2021/01/29,19:50,0.178,0.160,0.255,0.241,0.236,0.141,0.085,��,8.4,��
2021/01/29,20:00,0.179,0.160,0.255,0.242,0.237,0.141,0.086,��,8.7,��
2021/01/29,20:10,0.178,0.160,0.255,0.241,0.236,0.141,0.086,��,9.2,��
2021/01/29,20:20,0.179,0.160,0.256,0.241,0.238,0.142,0.085,��,7.1,��
2021/01/29,20:30,0.178,0.160,0.255,0.242,0.238,0.141,0.085,��,7.3,��
2021/01/29,20:40,0.179,0.159,0.256,0.241,0.237,0.140,0.085,��,8.7,��
2021/01/29,20:50,0.179,0.159,0.256,0.241,0.238,0.141,0.086,��,7.3,��
2021/01/29,21:00,0.179,0.161,0.254,0.241,0.238,0.141,0.086,��,7.1,��
2021/01/29,21:10,0.178,0.160,0.255,0.240,0.238,0.141,0.085,��,8.1,��
2021/01/29,21:20,0.179,0.160,0.256,0.241,0.238,0.141,0.085,���k��,7.3,��
2021/01/29,21:30,0.177,0.159,0.255,0.240,0.237,0.141,0.085,��,7.4,��
2021/01/29,21:40,0.179,0.160,0.256,0.242,0.238,0.141,0.085,��,6.3,��
2021/01/29,21:50,0.178,0.161,0.255,0.242,0.237,0.142,0.085,��,5.6,��
2021/01/29,22:00,0.178,0.160,0.255,0.242,0.238,0.141,0.086,��,3.8,��
2021/01/29,22:10,0.180,0.160,0.255,0.241,0.237,0.141,0.085,��,7.0,��
2021/01/29,22:20,0.179,0.160,0.255,0.242,0.238,0.141,0.086,��,7.0,��
2021/01/29,22:30,0.179,0.161,0.256,0.242,0.238,0.141,0.085,��,6.0,��
2021/01/29,22:40,0.178,0.160,0.256,0.242,0.238,0.141,0.085,��,7.1,��
2021/01/29,22:50,0.178,0.160,0.255,0.240,0.238,0.141,0.086,��,9.2,��
2021/01/29,23:00,0.177,0.160,0.256,0.242,0.237,0.140,0.085,��,9.2,��
2021/01/29,23:10,0.179,0.159,0.255,0.242,0.237,0.141,0.085,��,8.7,��
2021/01/29,23:20,0.178,0.159,0.255,0.241,0.238,0.141,0.086,��,10.9,��
2021/01/29,23:30,0.179,0.161,0.255,0.241,0.239,0.141,0.086,��,10.3,��
2021/01/29,23:40,0.178,0.160,0.254,0.240,0.237,0.142,0.085,��,9.0,��
2021/01/29,23:50,0.178,0.161,0.256,0.241,0.236,0.142,0.085,��,9.2,��
